Time,TemperatureF,DewpointF,PressureIn,WindDirection,WindDirectionDegrees,WindSpeedMPH,WindSpeedGustMPH,Humidity,HourlyPrecipIn,Conditions,Clouds,dailyrainin,SoftwareType,DateUTC
2013-03-01 00:03:00,49.5,49.0,30.35,SSE,155,0.0,-999.0,98,-99.99,,,0.00,weatherlink.com 1.10,2013-03-01 08:03:00,
2013-03-01 00:18:00,49.5,49.0,30.35,SSE,155,0.0,-999.0,98,-99.99,,,0.00,weatherlink.com 1.10,2013-03-01 08:18:00,
2013-03-01 00:33:00,49.5,49.0,30.34,SSE,155,0.0,-999.0,98,-99.99,,,0.00,weatherlink.com 1.10,2013-03-01 08:33:00,
2013-03-01 00:48:00,49.5,49.0,30.34,SSE,155,0.0,-999.0,98,-99.99,,,0.00,weatherlink.com 1.10,2013-03-01 08:48:00,
2013-03-01 01:03:00,49.4,49.0,30.34,SSE,155,0.0,-999.0,98,-99.99,,,0.00,weatherlink.com 1.10,2013-03-01 09:03:00,
2013-03-01 01:18:00,49.1,49.0,30.34,SSE,155,0.0,-999.0,98,-99.99,,,0.00,weatherlink.com 1.10,2013-03-01 09:18:00,
2013-03-01 01:33:00,49.1,49.0,30.35,SSE,155,0.0,-999.0,99,-99.99,,,0.00,weatherlink.com 1.10,2013-03-01 09:33:00,
2013-03-01 01:48:00,49.4,49.0,30.35,SSE,155,0.0,-999.0,99,-99.99,,,0.00,weatherlink.com 1.10,2013-03-01 09:48:00,
2013-03-01 02:03:00,49.5,49.0,30.36,SSE,155,0.0,-999.0,99,-99.99,,,0.00,weatherlink.com 1.10,2013-03-01 10:03:00,
2013-03-01 02:18:00,49.5,49.0,30.35,SSE,155,0.0,-999.0,99,-99.99,,,0.00,weatherlink.com 1.10,2013-03-01 10:18:00,
2013-03-01 02:33:00,49.5,49.0,30.34,SSE,155,0.0,-999.0,99,-99.99,,,0.00,weatherlink.com 1.10,2013-03-01 10:33:00,
2013-03-01 02:48:00,49.5,49.0,30.34,SSE,155,0.0,-999.0,99,-99.99,,,0.00,weatherlink.com 1.10,2013-03-01 10:48:00,
2013-03-01 03:03:00,49.4,49.0,30.34,SSE,155,0.0,-999.0,99,-99.99,,,0.00,weatherlink.com 1.10,2013-03-01 11:03:00,
2013-03-01 03:18:00,49.5,49.0,30.34,SSE,155,0.0,-999.0,99,-99.99,,,0.00,weatherlink.com 1.10,2013-03-01 11:18:00,
2013-03-01 03:33:00,49.5,49.0,30.34,SSE,155,0.0,-999.0,99,-99.99,,,0.00,weatherlink.com 1.10,2013-03-01 11:33:00,
2013-03-01 03:48:00,49.5,49.0,30.34,SSE,155,0.0,-999.0,99,-99.99,,,0.00,weatherlink.com 1.10,2013-03-01 11:48:00,
2013-03-01 04:03:00,49.5,49.0,30.34,SSE,155,0.0,-999.0,99,-99.99,,,0.00,weatherlink.com 1.10,2013-03-01 12:03:00,
2013-03-01 04:18:00,49.5,49.0,30.34,SSE,155,0.0,-999.0,99,-99.99,,,0.00,weatherlink.com 1.10,2013-03-01 12:18:00,
2013-03-01 04:33:00,49.5,49.0,30.34,SSE,155,0.0,-999.0,99,-99.99,,,0.00,weatherlink.com 1.10,2013-03-01 12:33:00,
2013-03-01 04:48:00,49.6,49.0,30.34,SSE,155,0.0,-999.0,99,-99.99,,,0.00,weatherlink.com 1.10,2013-03-01 12:48:00,
2013-03-01 05:03:00,49.5,49.0,30.34,SSE,155,0.0,-999.0,99,-99.99,,,0.00,weatherlink.com 1.10,2013-03-01 13:03:00,
2013-03-01 05:18:00,49.6,49.0,30.33,SSE,155,0.0,-999.0,99,-99.99,,,0.00,weatherlink.com 1.10,2013-03-01 13:18:00,
2013-03-01 05:33:00,49.5,49.0,30.33,SSE,155,0.0,-999.0,99,-99.99,,,0.00,weatherlink.com 1.10,2013-03-01 13:33:00,
2013-03-01 05:48:00,49.5,49.0,30.34,SSE,155,0.0,-999.0,99,-99.99,,,0.00,weatherlink.com 1.10,2013-03-01 13:48:00,
2013-03-01 06:03:00,49.5,49.0,30.34,SE,141,0.0,-999.0,99,-99.99,,,0.00,weatherlink.com 1.10,2013-03-01 14:03:00,
2013-03-01 06:18:00,49.5,49.0,30.34,SE,141,0.0,-999.0,99,-99.99,,,0.00,weatherlink.com 1.10,2013-03-01 14:18:00,
2013-03-01 06:33:00,49.5,49.0,30.34,SE,141,0.0,-999.0,99,-99.99,,,0.00,weatherlink.com 1.10,2013-03-01 14:33:00,
2013-03-01 06:48:00,49.5,49.0,30.32,SE,141,0.0,-999.0,99,-99.99,,,0.00,weatherlink.com 1.10,2013-03-01 14:48:00,
2013-03-01 07:03:00,49.4,49.0,30.33,SE,141,0.0,-999.0,99,-99.99,,,0.00,weatherlink.com 1.10,2013-03-01 15:03:00,
2013-03-01 07:18:00,49.5,49.0,30.32,SE,141,0.0,-999.0,99,-99.99,,,0.00,weatherlink.com 1.10,2013-03-01 15:18:00,
2013-03-01 07:33:00,49.8,50.0,30.33,SE,141,0.0,-999.0,99,-99.99,,,0.00,weatherlink.com 1.10,2013-03-01 15:33:00,
2013-03-01 07:48:00,49.9,50.0,30.33,SE,141,0.0,-999.0,99,-99.99,,,0.00,weatherlink.com 1.10,2013-03-01 15:48:00,
2013-03-01 08:03:00,50.2,50.0,30.34,SE,141,0.0,-999.0,99,-99.99,,,0.00,weatherlink.com 1.10,2013-03-01 16:03:00,
2013-03-01 08:18:00,50.5,50.0,30.33,WNW,285,0.0,-999.0,99,-99.99,,,0.00,weatherlink.com 1.10,2013-03-01 16:18:00,
2013-03-01 08:33:00,50.8,50.0,30.34,WNW,285,0.0,-999.0,98,-99.99,,,0.00,weatherlink.com 1.10,2013-03-01 16:33:00,
2013-03-01 08:48:00,51.3,51.0,30.35,WNW,285,0.0,-999.0,98,-99.99,,,0.00,weatherlink.com 1.10,2013-03-01 16:48:00,
2013-03-01 09:03:00,51.6,51.0,30.35,North,355,0.0,-999.0,96,-99.99,,,0.00,weatherlink.com 1.10,2013-03-01 17:03:00,
2013-03-01 09:18:00,52.5,51.0,30.34,North,355,0.0,-999.0,95,-99.99,,,0.00,weatherlink.com 1.10,2013-03-01 17:18:00,
2013-03-01 09:33:00,53.1,51.0,30.34,North,355,0.0,-999.0,92,-99.99,,,0.00,weatherlink.com 1.10,2013-03-01 17:33:00,
2013-03-01 09:48:00,53.3,51.0,30.34,SE,129,1.0,-999.0,92,-99.99,,,0.00,weatherlink.com 1.10,2013-03-01 17:48:00,
2013-03-01 10:03:00,53.8,51.0,30.34,SE,130,0.0,-999.0,90,-99.99,,,0.00,weatherlink.com 1.10,2013-03-01 18:03:00,
2013-03-01 10:18:00,54.1,51.0,30.34,SE,130,0.0,-999.0,90,-99.99,,,0.00,weatherlink.com 1.10,2013-03-01 18:18:00,
2013-03-01 10:33:00,54.5,51.0,30.34,East,93,0.0,-999.0,88,-99.99,,,0.00,weatherlink.com 1.10,2013-03-01 18:33:00,
2013-03-01 10:48:00,55.1,51.0,30.33,SSE,165,0.0,-999.0,86,-99.99,,,0.00,weatherlink.com 1.10,2013-03-01 18:48:00,
2013-03-01 11:03:00,56.5,52.0,30.32,North,355,0.0,-999.0,84,-99.99,,,0.00,weatherlink.com 1.10,2013-03-01 19:03:00,
2013-03-01 11:18:00,56.3,51.0,30.32,WSW,256,0.0,-999.0,83,-99.99,,,0.00,weatherlink.com 1.10,2013-03-01 19:18:00,
2013-03-01 11:33:00,56.0,51.0,30.32,WNW,298,0.0,-999.0,84,-99.99,,,0.00,weatherlink.com 1.10,2013-03-01 19:33:00,
2013-03-01 11:48:00,56.2,52.0,30.32,West,278,0.0,-999.0,85,-99.99,,,0.00,weatherlink.com 1.10,2013-03-01 19:48:00,
2013-03-01 12:03:00,56.9,52.0,30.32,North,351,0.0,-999.0,83,-99.99,,,0.00,weatherlink.com 1.10,2013-03-01 20:03:00,
2013-03-01 12:18:00,58.3,53.0,30.32,ENE,71,0.0,-999.0,81,-99.99,,,0.00,weatherlink.com 1.10,2013-03-01 20:18:00,
2013-03-01 12:33:00,58.3,52.0,30.31,North,5,0.0,-999.0,79,-99.99,,,0.00,weatherlink.com 1.10,2013-03-01 20:33:00,
2013-03-01 12:48:00,58.1,51.0,30.31,North,360,0.0,-999.0,78,-99.99,,,0.00,weatherlink.com 1.10,2013-03-01 20:48:00,
2013-03-01 13:03:00,58.3,52.0,30.30,NW,311,0.0,-999.0,79,-99.99,,,0.00,weatherlink.com 1.10,2013-03-01 21:03:00,
2013-03-01 13:18:00,58.3,52.0,30.29,NW,316,0.0,-999.0,79,-99.99,,,0.00,weatherlink.com 1.10,2013-03-01 21:18:00,
2013-03-01 13:33:00,57.8,51.0,30.29,NW,317,0.0,-999.0,79,-99.99,,,0.00,weatherlink.com 1.10,2013-03-01 21:33:00,
2013-03-01 13:49:00,57.2,51.0,30.29,NW,316,0.0,-999.0,80,-99.99,,,0.00,weatherlink.com 1.10,2013-03-01 21:49:00,
2013-03-01 14:04:00,57.2,51.0,30.28,NW,316,0.0,-999.0,81,-99.99,,,0.00,weatherlink.com 1.10,2013-03-01 22:04:00,
2013-03-01 14:18:00,58.0,52.0,30.28,NW,326,0.0,-999.0,81,-99.99,,,0.00,weatherlink.com 1.10,2013-03-01 22:18:00,
2013-03-01 14:34:00,58.9,51.0,30.27,NW,323,0.0,-999.0,76,-99.99,,,0.00,weatherlink.com 1.10,2013-03-01 22:34:00,
2013-03-01 14:49:00,59.0,52.0,30.27,SE,141,0.0,-999.0,77,-99.99,,,0.00,weatherlink.com 1.10,2013-03-01 22:49:00,
2013-03-01 15:04:00,58.9,52.0,30.26,SSE,164,0.0,-999.0,77,-99.99,,,0.00,weatherlink.com 1.10,2013-03-01 23:04:00,
2013-03-01 15:19:00,59.2,51.0,30.26,SSE,164,0.0,-999.0,74,-99.99,,,0.00,weatherlink.com 1.10,2013-03-01 23:19:00,
2013-03-01 15:34:00,58.9,52.0,30.26,SSE,158,0.0,-999.0,77,-99.99,,,0.00,weatherlink.com 1.10,2013-03-01 23:34:00,
2013-03-01 15:48:00,58.9,51.0,30.26,SSE,158,0.0,-999.0,76,-99.99,,,0.00,weatherlink.com 1.10,2013-03-01 23:48:00,
2013-03-01 16:03:00,58.6,51.0,30.26,SSE,157,1.0,-999.0,76,-99.99,,,0.00,weatherlink.com 1.10,2013-03-02 00:03:00,
2013-03-01 16:19:00,58.7,50.0,30.25,SSE,153,0.0,-999.0,74,-99.99,,,0.00,weatherlink.com 1.10,2013-03-02 00:19:00,
2013-03-01 16:33:00,58.3,50.0,30.24,SSE,153,0.0,-999.0,74,-99.99,,,0.00,weatherlink.com 1.10,2013-03-02 00:33:00,
2013-03-01 16:48:00,57.6,49.0,30.24,SSE,151,0.0,-999.0,74,-99.99,,,0.00,weatherlink.com 1.10,2013-03-02 00:48:00,
2013-03-01 17:04:00,57.3,49.0,30.24,SSE,151,0.0,-999.0,75,-99.99,,,0.00,weatherlink.com 1.10,2013-03-02 01:04:00,
2013-03-01 17:18:00,57.0,49.0,30.24,WNW,284,0.0,-999.0,74,-99.99,,,0.00,weatherlink.com 1.10,2013-03-02 01:18:00,
2013-03-01 17:33:00,56.6,49.0,30.23,WNW,284,0.0,-999.0,77,-99.99,,,0.00,weatherlink.com 1.10,2013-03-02 01:33:00,
2013-03-01 17:49:00,56.2,50.0,30.23,NW,315,0.0,-999.0,79,-99.99,,,0.00,weatherlink.com 1.10,2013-03-02 01:49:00,
2013-03-01 18:04:00,55.1,49.0,30.23,NW,315,0.0,-999.0,81,-99.99,,,0.00,weatherlink.com 1.10,2013-03-02 02:04:00,
2013-03-01 18:18:00,54.1,50.0,30.23,NW,315,0.0,-999.0,85,-99.99,,,0.00,weatherlink.com 1.10,2013-03-02 02:18:00,
2013-03-01 18:33:00,53.3,49.0,30.22,NW,315,0.0,-999.0,86,-99.99,,,0.00,weatherlink.com 1.10,2013-03-02 02:33:00,
2013-03-01 18:49:00,52.6,49.0,30.23,NW,309,0.0,-999.0,87,-99.99,,,0.00,weatherlink.com 1.10,2013-03-02 02:49:00,
2013-03-01 19:04:00,52.5,49.0,30.23,NW,309,0.0,-999.0,86,-99.99,,,0.00,weatherlink.com 1.10,2013-03-02 03:04:00,
2013-03-01 19:18:00,52.3,48.0,30.23,NW,309,0.0,-999.0,86,-99.99,,,0.00,weatherlink.com 1.10,2013-03-02 03:18:00,
2013-03-01 19:33:00,51.9,48.0,30.23,NW,309,0.0,-999.0,87,-99.99,,,0.00,weatherlink.com 1.10,2013-03-02 03:33:00,
2013-03-01 19:49:00,51.9,48.0,30.23,NW,309,0.0,-999.0,85,-99.99,,,0.00,weatherlink.com 1.10,2013-03-02 03:49:00,
2013-03-01 20:03:00,52.0,47.0,30.22,NW,309,0.0,-999.0,84,-99.99,,,0.00,weatherlink.com 1.10,2013-03-02 04:03:00,
2013-03-01 20:18:00,51.7,47.0,30.22,NW,309,0.0,-999.0,85,-99.99,,,0.00,weatherlink.com 1.10,2013-03-02 04:18:00,
2013-03-01 20:34:00,50.8,48.0,30.22,NW,309,0.0,-999.0,90,-99.99,,,0.00,weatherlink.com 1.10,2013-03-02 04:34:00,
2013-03-01 20:49:00,50.4,48.0,30.22,NW,309,0.0,-999.0,91,-99.99,,,0.00,weatherlink.com 1.10,2013-03-02 04:49:00,
2013-03-01 21:04:00,49.9,48.0,30.22,NW,309,0.0,-999.0,92,-99.99,,,0.00,weatherlink.com 1.10,2013-03-02 05:04:00,
2013-03-01 21:18:00,50.7,49.0,30.23,NW,309,0.0,-999.0,92,-99.99,,,0.00,weatherlink.com 1.10,2013-03-02 05:18:00,
2013-03-01 21:34:00,51.4,48.0,30.23,NW,309,0.0,-999.0,88,-99.99,,,0.00,weatherlink.com 1.10,2013-03-02 05:34:00,
2013-03-01 21:49:00,51.0,49.0,30.22,NW,309,0.0,-999.0,91,-99.99,,,0.00,weatherlink.com 1.10,2013-03-02 05:49:00,
2013-03-01 22:04:00,51.1,48.0,30.22,NW,309,0.0,-999.0,90,-99.99,,,0.00,weatherlink.com 1.10,2013-03-02 06:04:00,
2013-03-01 22:19:00,51.0,48.0,30.22,NW,309,0.0,-999.0,90,-99.99,,,0.00,weatherlink.com 1.10,2013-03-02 06:19:00,
2013-03-01 22:33:00,50.8,48.0,30.22,NW,309,0.0,-999.0,91,-99.99,,,0.00,weatherlink.com 1.10,2013-03-02 06:33:00,
2013-03-01 22:48:00,50.8,48.0,30.21,NW,309,0.0,-999.0,91,-99.99,,,0.00,weatherlink.com 1.10,2013-03-02 06:48:00,
2013-03-01 23:03:00,50.8,48.0,30.21,NW,309,0.0,-999.0,91,-99.99,,,0.00,weatherlink.com 1.10,2013-03-02 07:03:00,
2013-03-01 23:18:00,50.5,48.0,30.21,NW,309,0.0,-999.0,91,-99.99,,,0.00,weatherlink.com 1.10,2013-03-02 07:18:00,
2013-03-01 23:33:00,50.4,48.0,30.21,NW,309,0.0,-999.0,92,-99.99,,,0.00,weatherlink.com 1.10,2013-03-02 07:33:00,
2013-03-01 23:48:00,49.8,48.0,30.21,NW,309,0.0,-999.0,93,-99.99,,,0.00,weatherlink.com 1.10,2013-03-02 07:48:00,